Regional Weather Roundup
Issued by NWS Little Rock, AR

Home | Current Version | Previous Version | Graphics & Text | Print | Product List | Glossary On
Versions: 1 2 3 4 5 6 7 8 9 10 11 12 13 14 15 16 17 18 19 20 21 22 23 24 25 26 27 28 29 30 31 32 33 34 35 36 37 38 39 40 41 42 43 44 45 46 47 48 49 50
000
ASUS44 KLZK 220805
RWRLZK

WEATHER ROUNDUP FOR ARKANSAS
NATIONAL WEATHER SERVICE LITTLE ROCK AR
300 AM CDT SUN APR 22 2018

NOTE: "FAIR" INDICATES FEW OR NO CLOUDS BELOW 12,000 FEET WITH NO
SIGNIFICANT WEATHER AND/OR OBSTRUCTIONS TO VISIBILITY.

ARZ001-003-010-029-220900-
NORTHWEST ARKANSAS

CITY           SKY/WX    TMP DP  RH WIND       PRES   REMARKS
FAYETTEVILLE   LGT RAIN  53  52  96 W7        29.96S
FORT SMITH     TSTM      56  56 100 CALM      29.96S FOG
HARRISON       LGT RAIN  53  51  93 E6        29.97F
BENTONVILLE    CLOUDY    52  51  97 N7        29.97F
ROGERS         LGT RAIN  52  50  93 N6        29.96F
SILOAM SPGS    HVY RAIN  52  51  97 N3        29.97S FOG
HIGHFILL       CLOUDY    53  52  96 NW5       29.96
$$

ARZ004-005-016-220900-
NORTH CENTRAL ARKANSAS

CITY           SKY/WX    TMP DP  RH WIND       PRES   REMARKS
BATESVILLE     LGT RAIN  57  55  93 E10       30.01F
FLIPPIN        LGT RAIN  56  52  86 E6        29.99F
MTN HOME       LGT RAIN  56  53  90 SE3       29.99F
$$

ARZ040-041-220900-
WEST CENTRAL ARKANSAS

CITY           SKY/WX    TMP DP  RH WIND       PRES   REMARKS
MENA           CLOUDY   N/A N/A N/A CALM      29.94F THUNDER
MOUNT IDA      CLOUDY    58  57  97 CALM      29.89F
$$

ARZ009-017-025-026-028-220900-
NORTHEAST ARKANSAS

CITY           SKY/WX    TMP DP  RH WIND       PRES   REMARKS
CORNING        CLOUDY    57  54  88 E12       30.07F
JONESBORO      LGT RAIN  57  55  93 NE6       30.06S
WALNUT RIDGE   LGT RAIN  56  52  86 E8        30.05F
BLYTHEVILLE    LGT RAIN  59  52  77 E7        30.07F
$$

ARZ022-023-033-042-044-220900-
CENTRAL ARKANSAS

CITY           SKY/WX    TMP DP  RH WIND       PRES   REMARKS
LITTLE ROCK    CLOUDY    58  58 100 E13       29.95F
N LITTLE ROCK    N/A     57  56  97 E9        29.92F
JACKSONVILLE   CLOUDY    58  58 100 E12       29.94F
CONWAY         CLOUDY    59  57  94 SE10      29.95R
SEARCY         LGT RAIN  57  32  38 E8        30.01F
HOT SPRINGS    CLOUDY    58  58 100 E6        29.92F
RUSSELLVILLE   MOCLDY    56  56 100 E3        29.94F FOG
CLINTON        CLOUDY    55  55 100 CALM      29.96F FOG
$$

ARZ036-220900-
EAST ARKANSAS

CITY           SKY/WX    TMP DP  RH WIND       PRES   REMARKS
WEST MEMPHIS   LGT RAIN  61  59  93 MISG      30.02F FOG
$$

ARZ050-053-066-070-073-220900-
SOUTHWEST ARKANSAS

CITY           SKY/WX    TMP DP  RH WIND       PRES   REMARKS
ARKADELPHIA    PTSUNNY   58  57  97 CALM      29.93F
CAMDEN         RAIN      59  55  88 SW5       29.95R
TEXARKANA      CLOUDY    57  57 100 CALM      29.92F
EL DORADO      RAIN      59  59 100 CALM      29.97R
DE QUEEN       CLOUDY    57  57 100 CALM      29.93F
$$

ARZ056-057-069-220900-
SOUTHEAST ARKANSAS

CITY           SKY/WX    TMP DP  RH WIND       PRES   REMARKS
PINE BLUFF     RAIN      58  58 100 NE10      29.99F FOG
STUTTGART      RAIN      58  57  97 NE12      30.01F FOG
MONTICELLO     LGT RAIN  59  57  93 NE7       29.97F FOG

$$





USA.gov is the U.S. government's official web portal to all federal, state and local government web resources and services.